Weather History for Soldotna, AK

Change the Weather History Date:

Thursday, November 10, 2011

  Actual Average Record
Temperature  
Mean Temperature 22 °F -  
Max Temperature 26 °F 31 °F 45 °F (1979)
Min Temperature 17 °F 18 °F -11 °F (1969)
Degree Days  
Heating Degree Days 44    
Moisture  
Dew Point 19 °F    
Average Humidity 91    
Maximum Humidity 100    
Minimum Humidity 80    
Precipitation  
Precipitation 0.00 in - - ()
Sea Level Pressure  
Sea Level Pressure 29.59 in    
Wind  
Wind Speed 2 mph (ESE)    
Max Wind Speed 7 mph    
Max Gust Speed -    
Visibility 8 miles    
Events      
Averages and records for this station are not official NWS values.
T = Trace of Precipitation, MM = Missing Value Source: NWS Daily Summary

Daily Weather History Graph

Daily Weather History Graph

Search for Another Location

Airport:

Trip Planner

Search our weather history database for the weather conditions in past years. The results will help you decide how hot, cold, wet, or windy it might be!

Date:

Astronomy

Nov. 10, 2011 Rise Set
Actual Time 8:52 AM AKST 4:43 PM AKST
Civil Twilight 8:03 AM AKST 5:31 PM AKST
Nautical Twilight 7:11 AM AKST 6:23 PM AKST
Astronomical Twilight 6:22 AM AKST 7:12 PM AKST
Moon 4:16 PM AKST (11/10) 9:12 AM AKST (11/10)
Length of Visible Light 9h 28m
Length of Day
7h 51m
Full, 100% of the Moon is Illuminated
Nov 10
Full
Nov 18
Last Quarter
Nov 24
New
Dec 2
First Quarter
Dec 10
Full

Hourly Weather History & Observations

Time (AKST) Temp. Windchill Dew Point Humidity Pressure Visibility Wind Dir Wind Speed Gust Speed Precip Events Conditions
12:16 AM 19.4 °F - 17.6 °F 93% 29.59 in 10.0 mi Calm Calm - N/A   Overcast
12:36 AM 19.4 °F - 17.6 °F 93% 29.59 in 7.0 mi Calm Calm - N/A   Overcast
12:56 AM 19.4 °F 11.5 °F 15.8 °F 86% 29.57 in 8.0 mi East 5.8 mph - N/A   Overcast
1:16 AM 19.4 °F 14.3 °F 15.8 °F 86% 29.57 in 10.0 mi ENE 3.5 mph - N/A   Overcast
1:36 AM 19.4 °F 14.3 °F 17.6 °F 93% 29.57 in 9.0 mi ENE 3.5 mph - N/A   Overcast
1:56 AM 19.4 °F - 15.8 °F 86% 29.57 in 10.0 mi Calm Calm - N/A   Overcast
2:16 AM 19.4 °F 14.3 °F 17.6 °F 93% 29.55 in 10.0 mi East 3.5 mph - N/A   Overcast
2:36 AM 19.4 °F - 17.6 °F 93% 29.55 in 10.0 mi Calm Calm - N/A   Overcast
2:56 AM 19.4 °F 12.8 °F 17.6 °F 93% 29.55 in 5.0 mi ESE 4.6 mph - N/A   Overcast
3:16 AM 19.4 °F 12.8 °F 17.6 °F 93% 29.54 in 2.5 mi NE 4.6 mph - N/A   Overcast
3:36 AM 19.4 °F 14.3 °F 17.6 °F 93% 29.54 in 3.0 mi East 3.5 mph - N/A   Overcast
3:56 AM 19.4 °F - 17.6 °F 93% 29.52 in 10.0 mi Calm Calm - N/A   Overcast
4:16 AM 19.4 °F - 17.6 °F 93% 29.52 in 10.0 mi Calm Calm - N/A   Overcast
4:36 AM 19.4 °F - 17.6 °F 93% 29.52 in 10.0 mi Calm Calm - N/A   Overcast
4:56 AM 19.4 °F - 17.6 °F 93% 29.51 in 10.0 mi Calm Calm - N/A   Overcast
5:16 AM 19.4 °F 11.5 °F 17.6 °F 93% 29.50 in 10.0 mi ENE 5.8 mph - N/A   Overcast
5:36 AM 19.4 °F 14.3 °F 17.6 °F 93% 29.50 in 7.0 mi East 3.5 mph - N/A   Overcast
5:56 AM 19.4 °F - 17.6 °F 93% 29.49 in 3.0 mi Calm Calm - N/A   Overcast
6:16 AM 19.4 °F 14.3 °F 19.4 °F 100% 29.49 in 4.0 mi East 3.5 mph - N/A   Overcast
6:36 AM 19.4 °F - 17.6 °F 93% 29.49 in 3.0 mi Calm Calm - N/A   Overcast
6:56 AM 19.4 °F - 17.6 °F 93% 29.49 in 3.0 mi Calm Calm - N/A   Overcast
7:16 AM 19.4 °F 14.3 °F 17.6 °F 93% 29.49 in 3.0 mi North 3.5 mph - N/A   Overcast
7:36 AM 19.4 °F 14.3 °F 17.6 °F 93% 29.48 in 2.5 mi ENE 3.5 mph - N/A   Overcast
7:56 AM 19.4 °F 12.8 °F 19.4 °F 100% 29.47 in 3.0 mi East 4.6 mph - N/A   Overcast
8:16 AM 21.2 °F - 19.4 °F 93% 29.49 in 5.0 mi Calm Calm - N/A   Overcast
8:36 AM 21.2 °F - 19.4 °F 93% 29.51 in 6.0 mi Calm Calm - N/A   Overcast
8:56 AM 21.2 °F - 19.4 °F 93% 29.53 in 8.0 mi Calm Calm - N/A   Overcast
9:16 AM 21.2 °F - 19.4 °F 93% 29.55 in 9.0 mi Calm Calm - N/A   Overcast
9:36 AM 21.2 °F 16.4 °F 19.4 °F 93% 29.57 in 8.0 mi ESE 3.5 mph - N/A   Overcast
9:56 AM 21.2 °F 13.6 °F 19.4 °F 93% 29.57 in 9.0 mi SE 5.8 mph - N/A   Overcast
10:16 AM 21.2 °F 13.6 °F 19.4 °F 93% 29.58 in 10.0 mi ESE 5.8 mph - N/A   Overcast
10:36 AM 21.2 °F 12.6 °F 19.4 °F 93% 29.58 in 10.0 mi East 6.9 mph - N/A   Overcast
10:56 AM 21.2 °F 13.6 °F 19.4 °F 93% 29.59 in 10.0 mi ESE 5.8 mph - N/A   Overcast
11:16 AM 21.2 °F 14.9 °F 19.4 °F 93% 29.60 in 10.0 mi ESE 4.6 mph - N/A   Overcast
11:36 AM 21.2 °F 14.9 °F 19.4 °F 93% 29.61 in 10.0 mi SE 4.6 mph - N/A   Overcast
11:56 AM 21.2 °F 16.4 °F 19.4 °F 93% 29.61 in 10.0 mi East 3.5 mph - N/A   Mostly Cloudy
12:16 PM 21.2 °F - 19.4 °F 93% 29.63 in 10.0 mi Calm Calm - N/A   Partly Cloudy
12:36 PM 24.8 °F 17.9 °F 21.2 °F 86% 29.63 in - SSE 5.8 mph - N/A   Unknown
12:56 PM 24.8 °F 17.9 °F 21.2 °F 86% 29.63 in 9.0 mi South 5.8 mph - N/A   Clear
1:16 PM 26.6 °F 20.0 °F 21.2 °F 80% 29.65 in 10.0 mi SSW 5.8 mph - N/A   Clear
1:36 PM 26.6 °F 20.0 °F 21.2 °F 80% 29.66 in 10.0 mi WSW 5.8 mph - N/A   Clear
1:56 PM 26.6 °F 22.6 °F 21.2 °F 80% 29.66 in 10.0 mi WSW 3.5 mph - N/A   Clear
2:16 PM 26.6 °F - 21.2 °F 80% 29.66 in 10.0 mi Calm Calm - N/A   Clear
2:36 PM 24.8 °F - 21.2 °F 86% 29.67 in - Calm Calm - N/A   Unknown
2:56 PM 24.8 °F - 23.0 °F 93% 29.68 in - Calm Calm - N/A   Unknown
3:16 PM 26.6 °F - 21.2 °F 80% 29.68 in - Calm Calm - N/A   Clear
3:36 PM 24.8 °F - 21.2 °F 86% 29.68 in - Calm Calm - N/A   Unknown
3:56 PM 24.8 °F - 21.2 °F 86% 29.69 in - Calm Calm - N/A   Unknown
4:16 PM 24.8 °F 19.1 °F 21.2 °F 86% 29.69 in 10.0 mi SSE 4.6 mph - N/A   Clear
4:36 PM 24.8 °F 19.1 °F 24.8 °F 100% 29.70 in 10.0 mi East 4.6 mph - N/A   Clear
4:56 PM 21.2 °F 16.4 °F 21.2 °F 100% 29.71 in 10.0 mi ESE 3.5 mph - N/A   Clear
5:16 PM 17.6 °F 10.7 °F 17.6 °F 100% 29.72 in 10.0 mi SE 4.6 mph - N/A   Clear
5:36 PM 19.4 °F 14.3 °F 17.6 °F 93% 29.72 in 10.0 mi East 3.5 mph - N/A   Clear
5:56 PM 19.4 °F - 19.4 °F 100% 29.73 in 10.0 mi Calm Calm - N/A   Clear
6:16 PM 19.4 °F 14.3 °F 17.6 °F 93% 29.74 in 10.0 mi ENE 3.5 mph - N/A   Clear
6:56 PM 21.2 °F - 19.4 °F 93% 29.74 in 10.0 mi Calm Calm - N/A   Clear
7:16 PM 23.0 °F - 19.4 °F 86% 29.74 in 10.0 mi Calm Calm - N/A   Clear
7:36 PM 19.4 °F 11.5 °F 14.0 °F 80% 29.75 in 10.0 mi East 5.8 mph - N/A   Clear
7:56 PM 17.6 °F - 12.2 °F 79% 29.76 in 10.0 mi Calm Calm - N/A   Clear
8:16 PM 15.8 °F 10.2 °F 10.4 °F 79% 29.77 in 10.0 mi NE 3.5 mph - N/A   Clear
8:36 PM 15.8 °F 10.2 °F 10.4 °F 79% 29.77 in 10.0 mi ESE 3.5 mph - N/A   Clear
8:56 PM 14.0 °F 8.2 °F 12.2 °F 93% 29.78 in 10.0 mi ESE 3.5 mph - N/A   Clear
9:16 PM 15.8 °F 7.2 °F 15.8 °F 100% 29.79 in 10.0 mi East 5.8 mph - N/A   Clear
9:36 PM 14.0 °F 8.2 °F 14.0 °F 100% 29.79 in 10.0 mi East 3.5 mph - N/A   Clear
9:56 PM 15.8 °F 8.6 °F 12.2 °F 86% 29.80 in 10.0 mi East 4.6 mph - N/A   Clear
10:16 PM 12.2 °F 4.3 °F 6.8 °F 79% 29.80 in 10.0 mi East 4.6 mph - N/A   Clear
10:36 PM 14.0 °F 6.5 °F 12.2 °F 93% 29.81 in 10.0 mi ENE 4.6 mph - N/A   Clear
10:56 PM 10.4 °F 4.0 °F 8.6 °F 92% 29.81 in 10.0 mi East 3.5 mph - N/A   Clear
11:16 PM 8.6 °F 0.1 °F 6.8 °F 92% 29.81 in 10.0 mi East 4.6 mph - N/A   Clear
11:36 PM 10.4 °F 4.0 °F 8.6 °F 92% 29.82 in 10.0 mi NE 3.5 mph - N/A   Clear
11:56 PM 10.4 °F - 6.8 °F 85% 29.83 in 10.0 mi Calm Calm - N/A   Clear